Flag for Taiwan Weather past 2 weeks in Taichung, Taiwan

Now
73 °F

Passing clouds.


Feels Like: 70 °F
Forecast: 72 / 87 °F
Wind: 3 mph from North

Location: Chiang Kai Shek

Current Time: Apr 1, 2015 at 12:50:42 AM

Latest Report: Apr 1, 2015 at 12:00 AM


Visibility: 6 mi

Pressure: 29.92 "Hg

Humidity: 94%

Dew point: 72 °F

Location of TaichungLocation

Historic Weather in Taichung — Graph

°F

Taichung temperature yesterday

Maximum temperature yesterday: 86 °F (at 1:00 PM)
Minimum temperature yesterday: 68 °F (at 2:30 AM)
Average temperature yesterday: 76 °F

Past Weeks' High & Low Weather Summary

 TemperatureHumidityPressure
High86 °F (Mar 31, 1:00 PM)100% (Mar 16, 11:00 PM)30.39 "Hg (Mar 16, 11:00 PM)
Low55 °F (Mar 28, 5:30 AM)45% (Mar 30, 12:00 PM)29.80 "Hg (Mar 18, 2:00 PM)
Average68 °F84%30.07 "Hg
* Reported Mar 16 11:00 PM — Mar 31 11:30 PM, Taichung, Weather by CustomWeather, © 2015

Note: Actual official high and low records may vary slightly from our data, if they occured in-between our weather recording intervals... More about our weather records

Advertising

Taichung weather history for previous 24 hours

 ConditionsComfort  
Time TempWeatherWind HumidityBarometerVisibility
11:30 PM
Tue, Mar 31
72 °FPassing clouds.5 mph94%29.92 "HgN/A
11:00 PM73 °FPassing clouds.5 mph94%29.92 "HgN/A
10:30 PM75 °FPassing clouds.3 mph89%29.92 "HgN/A
10:00 PM75 °FPassing clouds.5 mph89%29.95 "HgN/A
9:30 PM77 °FPassing clouds.9 mph89%29.95 "HgN/A
9:00 PM77 °FPartly cloudy.10 mph83%29.95 "HgN/A
8:30 PM77 °FPartly cloudy.10 mph83%29.92 "HgN/A
8:00 PM77 °FPassing clouds.9 mph83%29.92 "HgN/A
7:30 PM77 °FPassing clouds.8 mph83%29.92 "HgN/A
7:00 PM75 °FPassing clouds.12 mph89%29.92 "HgN/A
6:30 PM77 °FPartly cloudy.10 mph83%29.92 "HgN/A
6:00 PM77 °FBroken clouds.12 mph83%29.92 "HgN/A
5:30 PM77 °FBroken clouds.14 mph83%29.89 "HgN/A
5:00 PM79 °FPartly sunny.15 mph79%29.89 "HgN/A
4:30 PM79 °FPartly sunny.16 mph79%29.89 "HgN/A
4:00 PM81 °FPartly sunny.18 mph74%29.89 "HgN/A
3:30 PM81 °FBroken clouds.14 mph70%29.89 "HgN/A
3:00 PM82 °FBroken clouds.13 mph70%29.89 "HgN/A
2:30 PM82 °FBroken clouds.17 mph70%29.89 "HgN/A
2:00 PM84 °FBroken clouds.18 mph62%29.92 "HgN/A
1:55 PM84 °FBroken clouds.18 mph62%29.92 "HgN/A
1:30 PM86 °FBroken clouds.18 mph59%29.92 "HgN/A
1:00 PM86 °FBroken clouds.12 mph59%29.92 "HgN/A
12:30 PM84 °FPartly sunny.12 mph58%29.95 "Hg6 mi
12:00 PM84 °FPartly sunny.10 mph62%29.95 "Hg4 mi
11:30 AM84 °FPartly sunny.6 mph62%29.98 "Hg4 mi
10:30 AM81 °FPartly sunny.9 mph66%29.98 "Hg4 mi
10:00 AM82 °FPartly sunny.10 mph62%29.98 "Hg6 mi
9:30 AM82 °FPartly sunny.3 mph58%29.98 "Hg6 mi
9:00 AM81 °FPartly sunny.7 mph62%30.01 "Hg6 mi
8:30 AM77 °FBroken clouds.6 mph69%30.01 "Hg6 mi
8:00 AM75 °FBroken clouds.7 mph74%30.01 "Hg6 mi
7:30 AM73 °FPartly sunny.7 mph78%29.98 "Hg5 mi
7:00 AM72 °FPartly sunny.6 mph83%29.98 "Hg4 mi
6:30 AM70 °FPartly sunny.3 mph88%29.98 "Hg4 mi
6:00 AM68 °FScattered clouds.6 mph88%29.95 "Hg4 mi
5:30 AM68 °FPassing clouds.5 mph94%29.95 "Hg5 mi
5:00 AM70 °FPassing clouds.7 mph88%29.95 "Hg5 mi
4:30 AM70 °FPassing clouds.5 mph88%29.95 "Hg5 mi
4:00 AM70 °FPassing clouds.5 mph88%29.95 "Hg6 mi
3:30 AM68 °FPassing clouds.3 mph94%29.95 "Hg6 mi
3:00 AM68 °FPassing clouds.No wind94%29.95 "Hg6 mi
2:30 AM68 °FPassing clouds.2 mph94%29.95 "Hg6 mi
2:00 AM70 °FPassing clouds.3 mph88%29.95 "Hg6 mi
1:30 AM72 °FPassing clouds.3 mph83%29.95 "Hg6 mi
1:00 AM73 °FPassing clouds.2 mph78%29.95 "HgN/A
12:30 AM75 °FPassing clouds.2 mph74%29.95 "Hg6 mi
12:00 AM72 °FPassing clouds.1 mph88%29.98 "Hg6 mi
Weather by CustomWeather, © 2015

See weather overviewHow to use our weather pages